Hourly Weather Barranquilla

Today, 18 April, Sunday

Time Temperature Precipitation Wind Pressure Humidity
00:00 +28°C° 0 mm 4 mps 752 mmHg 89%
01:00 +28°C° 0 mm 3 mps 752 mmHg 90%
02:00 +28°C° 0 mm 3 mps 752 mmHg 90%
03:00 +27°C° 0 mm 3 mps 752 mmHg 90%
04:00 +27°C° 0 mm 2 mps 752 mmHg 90%
05:00 +28°C° 0.1 mm 2 mps 752 mmHg 87%
06:00 +28°C° 0.1 mm 2 mps 753 mmHg 85%
07:00 +29°C° 0.1 mm 2 mps 754 mmHg 82%
08:00 +30°C° 0.1 mm 2 mps 754 mmHg 73%
09:00 +32°C° 0.1 mm 2 mps 754 mmHg 65%
10:00 +35°C° 0.1 mm 2 mps 754 mmHg 56%
11:00 +35°C° 0.4 mm 3 mps 754 mmHg 55%
12:00 +35°C° 0.4 mm 3 mps 753 mmHg 54%
13:00 +35°C° 0.4 mm 4 mps 752 mmHg 53%
14:00 +34°C° 1.2 mm 4 mps 752 mmHg 60%
15:00 +32°C° 1.2 mm 4 mps 752 mmHg 68%
16:00 +30°C° 1.2 mm 4 mps 751 mmHg 76%
17:00 +29°C° 4.1 mm 3 mps 752 mmHg 79%
18:00 +28°C° 4.1 mm 3 mps 753 mmHg 83%
19:00 +27°C° 4.1 mm 2 mps 753 mmHg 86%
20:00 +27°C° 0.3 mm 1 mps 754 mmHg 85%
21:00 +27°C° 0.3 mm 1 mps 754 mmHg 84%
22:00 +27°C° 0.3 mm 1 mps 754 mmHg 83%
23:00 +27°C° 0.2 mm 1 mps 754 mmHg 83%

Tomorrow, 19 April, Monday

Time Temperature Precipitation Wind Pressure Humidity
00:00 +27°C° 0.2 mm 1 mps 754 mmHg 84%
01:00 +27°C° 0.2 mm 1 mps 753 mmHg 84%
02:00 +27°C° 0.1 mm 1 mps 753 mmHg 84%
03:00 +27°C° 0.1 mm 1 mps 753 mmHg 85%
04:00 +27°C° 0.1 mm 2 mps 753 mmHg 85%
05:00 +27°C° 0 mm 2 mps 754 mmHg 84%
06:00 +28°C° 0 mm 2 mps 754 mmHg 83%
07:00 +28°C° 0 mm 2 mps 754 mmHg 82%
08:00 +29°C° 0 mm 2 mps 755 mmHg 76%
09:00 +30°C° 0 mm 2 mps 755 mmHg 70%
10:00 +32°C° 0 mm 1 mps 755 mmHg 64%
11:00 +32°C° 0.4 mm 2 mps 755 mmHg 62%
12:00 +32°C° 0.4 mm 2 mps 754 mmHg 61%
13:00 +34°C° 0.4 mm 2 mps 754 mmHg 60%
14:00 +33°C° 0.4 mm 3 mps 753 mmHg 62%
15:00 +33°C° 0.4 mm 3 mps 753 mmHg 65%
16:00 +32°C° 0.4 mm 4 mps 753 mmHg 68%
17:00 +30°C° 0.2 mm 4 mps 753 mmHg 72%
18:00 +29°C° 0.2 mm 4 mps 753 mmHg 76%
19:00 +29°C° 0.2 mm 4 mps 753 mmHg 80%
20:00 +28°C° 0 mm 4 mps 754 mmHg 81%
21:00 +28°C° 0 mm 4 mps 754 mmHg 83%
22:00 +28°C° 0 mm 4 mps 754 mmHg 84%
23:00 +28°C° 0 mm 4 mps 754 mmHg 85%

Day after tomorrow, 20 April, Tuesday

Time Temperature Precipitation Wind Pressure Humidity
00:00 +28°C° 0 mm 4 mps 754 mmHg 85%
01:00 +28°C° 0 mm 4 mps 753 mmHg 86%
02:00 +28°C° 0.1 mm 4 mps 753 mmHg 87%
03:00 +27°C° 0.1 mm 4 mps 753 mmHg 87%
04:00 +27°C° 0.1 mm 4 mps 753 mmHg 88%
05:00 +27°C° 0 mm 3 mps 753 mmHg 87%
06:00 +27°C° 0 mm 3 mps 754 mmHg 87%
07:00 +28°C° 0 mm 3 mps 754 mmHg 86%
08:00 +29°C° 0 mm 3 mps 755 mmHg 79%
09:00 +30°C° 0 mm 3 mps 755 mmHg 71%
10:00 +31°C° 0 mm 3 mps 755 mmHg 64%
11:00 +33°C° 0 mm 4 mps 755 mmHg 60%
12:00 +34°C° 0 mm 4 mps 754 mmHg 56%
13:00 +35°C° 0 mm 5 mps 754 mmHg 52%
14:00 +34°C° 0 mm 5 mps 753 mmHg 56%
15:00 +33°C° 0 mm 6 mps 753 mmHg 61%
16:00 +32°C° 0 mm 6 mps 752 mmHg 65%
17:00 +30°C° 0 mm 6 mps 752 mmHg 70%
18:00 +30°C° 0 mm 6 mps 753 mmHg 75%
19:00 +29°C° 0 mm 6 mps 753 mmHg 80%
20:00 +29°C° 0 mm 6 mps 753 mmHg 81%
21:00 +29°C° 0 mm 5 mps 753 mmHg 82%
22:00 +29°C° 0 mm 5 mps 754 mmHg 82%
23:00 +28°C° 0 mm 5 mps 753 mmHg 81%

21 April, Wednesday

Time Temperature Precipitation Wind Pressure Humidity
00:00 +28°C° 0 mm 5 mps 753 mmHg 79%
01:00 +28°C° 0 mm 5 mps 753 mmHg 78%
02:00 +28°C° 0 mm 4 mps 753 mmHg 80%
03:00 +28°C° 0 mm 4 mps 752 mmHg 81%
04:00 +28°C° 0 mm 4 mps 752 mmHg 82%
05:00 +28°C° 0 mm 4 mps 753 mmHg 81%
06:00 +28°C° 0 mm 4 mps 754 mmHg 79%
07:00 +29°C° 0 mm 4 mps 754 mmHg 77%
08:00 +30°C° 0 mm 4 mps 754 mmHg 70%
09:00 +32°C° 0 mm 4 mps 755 mmHg 64%
10:00 +34°C° 0 mm 4 mps 755 mmHg 57%
11:00 +34°C° 0 mm 5 mps 754 mmHg 56%
12:00 +35°C° 0 mm 5 mps 754 mmHg 54%
13:00 +35°C° 0 mm 6 mps 753 mmHg 52%
14:00 +34°C° 0 mm 7 mps 753 mmHg 55%
15:00 +34°C° 0 mm 7 mps 752 mmHg 58%
16:00 +33°C° 0 mm 7 mps 752 mmHg 61%
17:00 +32°C° 0 mm 8 mps 752 mmHg 68%
18:00 +29°C° 0 mm 8 mps 752 mmHg 75%
19:00 +28°C° 0 mm 8 mps 752 mmHg 82%
20:00 +28°C° 0 mm 8 mps 752 mmHg 83%
21:00 +28°C° 0 mm 8 mps 753 mmHg 83%
22:00 +28°C° 0 mm 8 mps 753 mmHg 84%
23:00 +28°C° 0 mm 7 mps 753 mmHg 83%

22 April, Thursday

Time Temperature Precipitation Wind Pressure Humidity
00:00 +28°C° 0 mm 7 mps 752 mmHg 82%
01:00 +28°C° 0 mm 6 mps 752 mmHg 81%
02:00 +28°C° 0 mm 6 mps 752 mmHg 82%
03:00 +28°C° 0 mm 5 mps 752 mmHg 83%
04:00 +27°C° 0 mm 4 mps 752 mmHg 84%
05:00 +28°C° 0 mm 4 mps 753 mmHg 82%
06:00 +28°C° 0 mm 4 mps 753 mmHg 80%
07:00 +29°C° 0 mm 4 mps 754 mmHg 78%
08:00 +30°C° 0 mm 4 mps 754 mmHg 70%
09:00 +33°C° 0 mm 4 mps 754 mmHg 61%
10:00 +34°C° 0 mm 5 mps 754 mmHg 53%
11:00 +35°C° 0 mm 5 mps 754 mmHg 52%
12:00 +35°C° 0 mm 6 mps 753 mmHg 51%
13:00 +36°C° 0 mm 6 mps 752 mmHg 50%
14:00 +34°C° 0 mm 7 mps 752 mmHg 55%
15:00 +33°C° 0 mm 7 mps 752 mmHg 59%
16:00 +32°C° 0 mm 8 mps 751 mmHg 64%
17:00 +31°C° 0 mm 8 mps 751 mmHg 70%
18:00 +29°C° 0 mm 8 mps 752 mmHg 76%
19:00 +28°C° 0 mm 9 mps 752 mmHg 82%
20:00 +28°C° 0 mm 9 mps 752 mmHg 82%
21:00 +28°C° 0 mm 8 mps 752 mmHg 83%
22:00 +28°C° 0 mm 8 mps 752 mmHg 83%
23:00 +28°C° 0 mm 8 mps 752 mmHg 83%

23 April, Friday

Time Temperature Precipitation Wind Pressure Humidity
00:00 +28°C° 0 mm 7 mps 752 mmHg 83%
01:00 +28°C° 0 mm 7 mps 752 mmHg 83%
02:00 +28°C° 0 mm 7 mps 752 mmHg 84%
03:00 +27°C° 0 mm 7 mps 752 mmHg 84%
04:00 +27°C° 0 mm 6 mps 752 mmHg 85%
05:00 +28°C° 0 mm 6 mps 753 mmHg 82%
06:00 +28°C° 0 mm 6 mps 753 mmHg 80%
07:00 +28°C° 0 mm 6 mps 754 mmHg 78%
08:00 +30°C° 0 mm 5 mps 754 mmHg 70%
09:00 +32°C° 0 mm 5 mps 754 mmHg 62%
10:00 +34°C° 0 mm 5 mps 754 mmHg 54%
11:00 +35°C° 0 mm 5 mps 753 mmHg 53%
12:00 +35°C° 0 mm 6 mps 753 mmHg 51%
13:00 +36°C° 0 mm 6 mps 752 mmHg 49%
14:00 +35°C° 0 mm 7 mps 752 mmHg 53%
15:00 +34°C° 0 mm 8 mps 751 mmHg 57%
16:00 +33°C° 0 mm 8 mps 751 mmHg 61%
17:00 +32°C° 0 mm 9 mps 751 mmHg 68%
18:00 +31°C° 0 mm 9 mps 751 mmHg 74%
19:00 +28°C° 0 mm 9 mps 751 mmHg 81%
20:00 +28°C° 0 mm 9 mps 752 mmHg 81%
21:00 +28°C° 0 mm 9 mps 752 mmHg 82%
22:00 +28°C° 0 mm 9 mps 752 mmHg 82%
23:00 +28°C° 0 mm 8 mps 752 mmHg 82%
Show more